Zurück zum Katalog

FENGYUN 1C DEB

LostPO
NORAD 32368·DEBRIS·🇨🇳 China

Gestartet May 10, 1999 von Taiyuan Satellite Launch Center

Loading…

Nächste Überflüge (nächste 24 Stunden)

TLE

VeraltetSource: Space-Track

Epoche: May 13, 2024, 06:37 UTC

1 32368U 99025CZM 24134.27636693  .00011954  00000-0  58270-2 0  9997
2 32368  97.8312 300.8313 0274143 107.3568 255.7780 14.00435745842330

Verfolge FENGYUN 1C DEB in Echtzeit mit AllMySat

Download on the App Store